Regional Weather Roundup
Issued by NWS

Home | Current Version | Previous Version | Text Only | Print | Product List | Glossary Off
Versions: 1 2 3 4 5 6 7 8 9 10 11 12 13 14 15 16 17 18 19 20 21 22 23 24 25 26 27 28 29 30 31 32 33 34 35 36 37 38 39 40 41 42 43 44 45 46 47 48 49 50

755
ASUS43 KFSD 160202
RWRSD

WEATHER ROUNDUP FOR SOUTH DAKOTA
NATIONAL WEATHER SERVICE SIOUX FALLS SD
800 PM CST FRI DEC 15 2017

NOTE: "FAIR" INDICATES FEW OR NO CLOUDS BELOW 12,000 FEET WITH NO
SIGNIFICANT WEATHER AND/OR OBSTRUCTIONS TO VISIBILITY.


SDZ001>005-009-010-012>017-160300-
NORTHWEST AND NORTH CENTRAL SOUTH DAKOTA

CITY           SKY/WX    TMP DP  RH WIND       PRES   REMARKS
BUFFALO          N/A     38  21  50 NW13      29.57S
FAITH            N/A     38  21  50 W10       29.62S
MOBRIDGE       CLOUDY    39  25  57 W5        29.55S
$$

SDZ012>016-024>037-041>051-057-063-072>074-160300-
SOUTHWEST AND SOUTH CENTRAL SOUTH DAKOTA

CITY           SKY/WX    TMP DP  RH WIND       PRES   REMARKS
RAPID CTY ARPT CLOUDY    35  16  45 N5        29.67R
PIERRE         CLOUDY    43  26  51 W12       29.60F
CUSTER         CLOUDY    37  15  40 W8        29.71F
ELLSWORTH AFB  PTCLDY    40  16  38 CALM      29.66R
PHILIP         CLOUDY    37  24  59 W9        29.65S
PINE RIDGE     MOCLDY    48  19  31 W10       29.72S
SPEARFISH      FAIR      48  14  25 W13G18    29.69R
WINNER         FAIR      45  28  51 S8        29.66S
$$

SDZ004>011-016>023-039-040-160300-
NORTHEAST SOUTH DAKOTA

CITY           SKY/WX    TMP DP  RH WIND       PRES   REMARKS
ABERDEEN       CLOUDY    36  27  69 S8        29.58F
WATERTOWN      CLOUDY    33  28  81 S9        29.59S WCI  25
BROOKINGS        N/A     35  26  69 S9        29.61  WCI  28
SISSETON         N/A     33  31  92 SE9       29.59F WCI  25
$$

SDZ017-020-022-023-036>040-048>070-160300-
SOUTHEAST SOUTH DAKOTA

CITY           SKY/WX    TMP DP  RH WIND       PRES   REMARKS
SIOUX FALLS    CLOUDY    40  27  59 SW7       29.65F
HURON          CLOUDY    36  28  73 S5        29.60F
CHAMBERLAIN    CLOUDY    41  30  65 W3        29.64S
MITCHELL       CLOUDY    42  29  59 SW8       29.63F
YANKTON        CLOUDY    43  28  55 SW10      29.67F
$$

ABBREVIATIONS USED IN REMARKS
   TC - TEMPERATURE IN CELSIUS
  WCI - WIND CHILL INDEX
   HX - HEAT INDEX
  VSB - VISIBILITY





USA.gov is the U.S. government's official web portal to all federal, state and local government web resources and services.